When you browse on this site, cookies collect data to enhance your experience and personalize the content and advertising you see.
Visit our Privacy Policy to learn more. By continuing to use the site, you agree to this use of cookies and data.
  • In Lithuania
  • List of Countries
  • For 7 days
  • Water Temperature
  • Satellite Maps
  • Weather Map
  • Weather Widgets
  • user-avatar
    Login

    Hourly Weather Paralia

    Today, 11 December, Tuesday

    Time Temperature Precipitation Wind Pressure Humidity
    00:00 +10°C° 0.2 mm 1 mps 745 mmHg 81%
    01:00 +10°C° 0 mm 1 mps 744 mmHg 83%
    02:00 +10°C° 0.7 mm 1 mps 744 mmHg 83%
    03:00 +10°C° 0.7 mm 1 mps 744 mmHg 82%
    04:00 +10°C° 0.7 mm 1 mps 745 mmHg 82%
    05:00 +10°C° 0.3 mm 1 mps 745 mmHg 82%
    06:00 +9°C° 0.3 mm 1 mps 745 mmHg 83%
    07:00 +8°C° 0 mm 2 mps 745 mmHg 82%
    08:00 +10°C° 0.3 mm 1 mps 745 mmHg 79%
    09:00 +10°C° 0.3 mm 1 mps 745 mmHg 75%
    10:00 +11°C° 0.3 mm 1 mps 746 mmHg 72%
    11:00 +11°C° 0.6 mm 1 mps 746 mmHg 72%
    12:00 +11°C° 0.6 mm 1 mps 746 mmHg 72%
    13:00 +11°C° 0.6 mm 1 mps 746 mmHg 72%
    14:00 +11°C° 0.3 mm 1 mps 746 mmHg 75%
    15:00 +10°C° 0.3 mm 1 mps 746 mmHg 77%
    16:00 +9°C° 0.3 mm 1 mps 746 mmHg 80%
    17:00 +9°C° 0.1 mm 1 mps 747 mmHg 81%
    18:00 +8°C° 0.1 mm 1 mps 747 mmHg 82%
    19:00 +8°C° 0.1 mm 1 mps 748 mmHg 84%
    20:00 +7°C° 0 mm 1 mps 748 mmHg 84%
    21:00 +7°C° 0 mm 1 mps 748 mmHg 85%
    22:00 +7°C° 0 mm 1 mps 749 mmHg 86%
    23:00 +7°C° 0 mm 1 mps 749 mmHg 86%

    Tomorrow, 12 December, Wednesday

    Time Temperature Precipitation Wind Pressure Humidity
    00:00 +7°C° 0 mm 1 mps 749 mmHg 86%
    01:00 +7°C° 0 mm 1 mps 750 mmHg 86%
    02:00 +6°C° 0 mm 1 mps 750 mmHg 86%
    03:00 +6°C° 0 mm 1 mps 750 mmHg 87%
    04:00 +6°C° 0 mm 1 mps 750 mmHg 87%
    05:00 +6°C° 0 mm 1 mps 750 mmHg 87%
    06:00 +6°C° 0 mm 1 mps 751 mmHg 87%
    07:00 +5°C° 0 mm 1 mps 751 mmHg 87%
    08:00 +7°C° 0 mm 1 mps 751 mmHg 77%
    09:00 +9°C° 0 mm 1 mps 752 mmHg 66%
    10:00 +10°C° 0 mm 1 mps 752 mmHg 56%
    11:00 +11°C° 0 mm 1 mps 752 mmHg 54%
    12:00 +11°C° 0 mm 1 mps 752 mmHg 53%
    13:00 +12°C° 0 mm 1 mps 752 mmHg 51%
    14:00 +11°C° 0 mm 1 mps 752 mmHg 56%
    15:00 +10°C° 0 mm 1 mps 752 mmHg 60%
    16:00 +9°C° 0 mm 1 mps 752 mmHg 65%
    17:00 +8°C° 0 mm 1 mps 752 mmHg 67%
    18:00 +8°C° 0 mm 1 mps 752 mmHg 69%
    19:00 +7°C° 0 mm 1 mps 752 mmHg 72%
    20:00 +7°C° 0 mm 1 mps 752 mmHg 72%
    21:00 +7°C° 0 mm 1 mps 752 mmHg 71%
    22:00 +7°C° 0 mm 1 mps 752 mmHg 71%
    23:00 +7°C° 0 mm 1 mps 752 mmHg 70%

    Day after tomorrow, 13 December, Thursday

    Time Temperature Precipitation Wind Pressure Humidity
    00:00 +7°C° 0 mm 2 mps 752 mmHg 69%
    01:00 +7°C° 0 mm 2 mps 752 mmHg 68%
    02:00 +7°C° 0.1 mm 2 mps 751 mmHg 68%
    03:00 +7°C° 0.1 mm 2 mps 751 mmHg 69%
    04:00 +7°C° 0.1 mm 2 mps 750 mmHg 70%
    05:00 +7°C° 1 mm 2 mps 750 mmHg 74%
    06:00 +7°C° 1 mm 3 mps 750 mmHg 78%
    07:00 +7°C° 1 mm 3 mps 749 mmHg 82%
    08:00 +7°C° 3.5 mm 3 mps 749 mmHg 84%
    09:00 +7°C° 3.5 mm 3 mps 749 mmHg 86%
    10:00 +7°C° 3.5 mm 3 mps 749 mmHg 89%
    11:00 +7°C° 1 mm 3 mps 749 mmHg 87%
    12:00 +8°C° 1 mm 3 mps 748 mmHg 85%
    13:00 +9°C° 1 mm 2 mps 748 mmHg 83%
    14:00 +9°C° 0 mm 2 mps 748 mmHg 85%
    15:00 +9°C° 0 mm 2 mps 747 mmHg 86%
    16:00 +10°C° 0 mm 1 mps 747 mmHg 88%
    17:00 +10°C° 0 mm 1 mps 748 mmHg 89%
    18:00 +8°C° 0 mm 2 mps 748 mmHg 90%
    19:00 +8°C° 0 mm 2 mps 748 mmHg 91%
    20:00 +8°C° 0 mm 2 mps 748 mmHg 91%
    21:00 +8°C° 0 mm 2 mps 749 mmHg 92%
    22:00 +8°C° 0 mm 2 mps 749 mmHg 92%
    23:00 +8°C° 0.1 mm 2 mps 749 mmHg 92%

    14 December, Friday

    Time Temperature Precipitation Wind Pressure Humidity
    00:00 +9°C° 0.1 mm 2 mps 749 mmHg 92%
    01:00 +9°C° 0.1 mm 2 mps 748 mmHg 92%
    02:00 +9°C° 0.6 mm 2 mps 748 mmHg 93%
    03:00 +9°C° 0.6 mm 2 mps 748 mmHg 93%
    04:00 +10°C° 0.6 mm 2 mps 748 mmHg 93%
    05:00 +10°C° 0.8 mm 2 mps 749 mmHg 93%
    06:00 +10°C° 0.8 mm 2 mps 749 mmHg 93%
    07:00 +10°C° 0.8 mm 2 mps 749 mmHg 93%
    08:00 +10°C° 0.4 mm 2 mps 749 mmHg 91%
    09:00 +12°C° 0.4 mm 2 mps 749 mmHg 90%
    10:00 +12°C° 0.4 mm 3 mps 749 mmHg 88%
    11:00 +13°C° 0.1 mm 3 mps 749 mmHg 85%
    12:00 +14°C° 0.1 mm 3 mps 749 mmHg 83%
    13:00 +14°C° 0.1 mm 3 mps 749 mmHg 80%
    14:00 +14°C° 0.1 mm 3 mps 748 mmHg 83%
    15:00 +13°C° 0.1 mm 3 mps 748 mmHg 85%
    16:00 +12°C° 0.1 mm 3 mps 748 mmHg 88%
    17:00 +11°C° 0 mm 3 mps 748 mmHg 89%
    18:00 +11°C° 0 mm 3 mps 748 mmHg 90%
    19:00 +10°C° 0 mm 3 mps 749 mmHg 91%
    20:00 +10°C° 0 mm 3 mps 748 mmHg 91%
    21:00 +10°C° 0 mm 3 mps 748 mmHg 91%
    22:00 +10°C° 0 mm 3 mps 748 mmHg 90%
    23:00 +10°C° 0 mm 3 mps 748 mmHg 90%

    15 December, Saturday

    Time Temperature Precipitation Wind Pressure Humidity
    00:00 +10°C° 0 mm 3 mps 747 mmHg 90%
    01:00 +10°C° 0 mm 3 mps 747 mmHg 90%
    02:00 +10°C° 0 mm 3 mps 747 mmHg 89%
    03:00 +11°C° 0 mm 3 mps 746 mmHg 89%
    04:00 +11°C° 0 mm 3 mps 746 mmHg 88%
    05:00 +11°C° 0 mm 3 mps 746 mmHg 88%
    06:00 +11°C° 0 mm 3 mps 745 mmHg 87%
    07:00 +11°C° 0 mm 3 mps 745 mmHg 87%
    08:00 +12°C° 0.1 mm 3 mps 745 mmHg 84%
    09:00 +12°C° 0.1 mm 4 mps 745 mmHg 82%
    10:00 +13°C° 0.1 mm 4 mps 745 mmHg 79%
    11:00 +13°C° 0.6 mm 4 mps 744 mmHg 81%
    12:00 +13°C° 0.6 mm 4 mps 744 mmHg 82%
    13:00 +13°C° 0.6 mm 3 mps 743 mmHg 84%
    14:00 +12°C° 1.4 mm 3 mps 743 mmHg 86%
    15:00 +12°C° 1.4 mm 3 mps 743 mmHg 88%
    16:00 +11°C° 1.4 mm 3 mps 743 mmHg 90%
    17:00 +12°C° 0.3 mm 2 mps 743 mmHg 90%
    18:00 +12°C° 0.3 mm 2 mps 743 mmHg 90%
    19:00 +10°C° 0.3 mm 2 mps 743 mmHg 90%
    20:00 +10°C° 0.2 mm 2 mps 743 mmHg 90%
    21:00 +10°C° 0.2 mm 2 mps 743 mmHg 90%
    22:00 +10°C° 0.2 mm 2 mps 743 mmHg 91%
    23:00 +10°C° 0.1 mm 2 mps 743 mmHg 91%

    16 December, Sunday

    Time Temperature Precipitation Wind Pressure Humidity
    00:00 +10°C° 0.1 mm 2 mps 743 mmHg 90%
    01:00 +10°C° 0.1 mm 2 mps 743 mmHg 90%
    02:00 +10°C° 0.1 mm 2 mps 743 mmHg 90%
    03:00 +10°C° 0.1 mm 2 mps 743 mmHg 90%
    04:00 +9°C° 0.1 mm 2 mps 743 mmHg 90%
    05:00 +9°C° 0 mm 2 mps 743 mmHg 90%
    06:00 +9°C° 0 mm 2 mps 744 mmHg 89%
    07:00 +9°C° 0 mm 2 mps 744 mmHg 89%
    08:00 +12°C° 0 mm 2 mps 744 mmHg 85%
    09:00 +13°C° 0 mm 2 mps 745 mmHg 81%
    10:00 +14°C° 0 mm 2 mps 745 mmHg 77%
    11:00 +15°C° 0 mm 2 mps 745 mmHg 74%
    12:00 +15°C° 0 mm 2 mps 745 mmHg 72%
    13:00 +16°C° 0 mm 2 mps 746 mmHg 69%
    14:00 +15°C° 0 mm 2 mps 746 mmHg 73%
    15:00 +14°C° 0 mm 2 mps 746 mmHg 77%
    16:00 +13°C° 0 mm 2 mps 747 mmHg 80%
    17:00 +13°C° 0 mm 2 mps 747 mmHg 82%
    18:00 +12°C° 0 mm 2 mps 748 mmHg 84%
    19:00 +11°C° 0 mm 3 mps 749 mmHg 85%
    20:00 +10°C° 0 mm 3 mps 749 mmHg 86%
    21:00 +10°C° 0 mm 3 mps 750 mmHg 86%
    22:00 +10°C° 0 mm 3 mps 750 mmHg 86%
    23:00 +10°C° 0 mm 3 mps 750 mmHg 86%
    Show more